EW0802 Weather Reports


time (UTC)temp
C
wind
direction
speed
KPH
gust
KPH
rain 1hr
cm
rain 24hr
cm
rain mn
cm
humidity
%
barometer
mb
20260906233026 36 162 3.2 12.9 0.00 0.00 0.00 40 1008.6
20260906231526 37 38 3.2 9.7 0.00 0.00 0.00 38 1008.7
20260906230025 37 181 1.6 8.0 0.00 0.00 0.00 37 1008.6
20260906224523 37 289 0.0 4.8 0.00 0.00 0.00 38 1008.7
20260906223023 37 156 1.6 6.4 0.00 0.00 0.00 37 1008.8
20260906221522 37 236 1.6 6.4 0.00 0.00 0.00 39 1008.8
20260906220020 37 324 0.0 6.4 0.00 0.00 0.00 39 1008.9
20260906214531 37 49 1.6 9.7 0.00 0.00 0.00 40 1008.9
20260906213017 37 121 1.6 9.7 0.00 0.00 0.00 39 1009.1
20260906211515 37 175 0.0 6.4 0.00 0.00 0.00 41 1009.3
20260906210025 37 165 1.6 6.4 0.00 0.00 0.00 41 1009.5
20260906204516 36 169 1.6 8.0 0.00 0.00 0.00 42 1009.7
20260906203008 36 126 0.0 8.0 0.00 0.00 0.00 42 1009.9
20260906201507 36 142 0.0 3.2 0.00 0.00 0.00 43 1010.0
20260906200005 36 153 1.6 4.8 0.00 0.00 0.00 44 1010.2
20260906194508 36 123 3.2 8.0 0.00 0.00 0.00 46 1010.3
20260906193003 36 49 1.6 9.7 0.00 0.00 0.00 45 1010.6
20260906191504 35 118 0.0 4.8 0.00 0.00 0.00 47 1010.7
20260906190002 36 184 0.0 8.0 0.00 0.00 0.00 46 1010.8
20260906184609 36 71 1.6 6.4 0.00 0.00 0.00 45 1010.9
20260906183103 36 68 1.6 4.8 0.00 0.00 0.00 45 1011.0
20260906181600 37 360 0.0 6.4 0.00 0.00 0.00 45 1011.3
20260906180054 36 97 1.6 9.7 0.00 0.00 0.00 45 1011.5
20260906174551 36 46 0.0 6.4 0.00 0.00 0.00 47 1011.8
20260906173051 36 62 0.0 8.0 0.00 0.00 0.00 49 1012.1
20260906171541 35 306 1.6 4.8 0.00 0.00 0.00 50 1012.3
20260906170042 35 140 1.6 4.8 0.00 0.00 0.00 51 1012.5
20260906164534 35 59 1.6 4.8 0.00 0.00 0.00 52 1012.7
20260906163031 35 205 1.6 8.0 0.00 0.00 0.00 53 1012.6
20260906161530 33 82 1.6 6.4 0.00 0.00 0.00 53 1012.6
20260906160033 33 177 1.6 6.4 0.00 0.00 0.00 58 1012.7
20260906154534 32 78 0.0 4.8 0.00 0.00 0.00 61 1012.7
20260906153013 32 134 0.0 3.2 0.00 0.00 0.00 63 1012.6
20260906151509 31 65 0.0 4.8 0.00 0.00 0.00 66 1012.7
20260906150010 30 113 0.0 3.2 0.00 0.00 0.00 69 1012.5
20260906144626 30 159 1.6 4.8 0.00 0.00 0.00 71 1012.3
20260906143111 28 68 0.0 0.0 0.00 0.00 0.00 75 1012.4
20260906141554 27 131 0.0 0.0 0.00 0.00 0.00 78 1012.4
20260906140049 26 94 0.0 0.0 0.00 0.00 0.00 80 1012.3
20260906134550 26 132 0.0 0.0 0.00 0.00 0.00 81 1012.2
20260906133047 25 151 0.0 0.0 0.00 0.00 0.00 82 1012.2
20260906131549 25 143 0.0 0.0 0.00 0.00 0.00 82 1012.2
20260906130044 25 161 0.0 0.0 0.00 0.00 0.00 82 1012.1
20260906124537 25 250 0.0 0.0 0.00 0.00 0.00 82 1011.9
20260906123037 25 250 0.0 0.0 0.00 0.00 0.00 81 1011.9
20260906121532 25 250 0.0 0.0 0.00 0.00 0.00 81 1011.8
20260906120030 25 184 0.0 0.0 0.00 0.00 0.00 81 1011.7
20260906114533 25 184 0.0 0.0 0.00 0.00 0.00 80 1011.5
20260906113039 25 184 0.0 0.0 0.00 0.00 0.00 79 1011.3
20260906111530 25 184 0.0 0.0 0.00 0.00 0.00 79 1011.2
20260906110023 25 184 0.0 0.0 0.00 0.00 0.00 79 1011.1
20260906104521 26 184 0.0 0.0 0.00 0.00 0.00 78 1011.1
20260906103020 26 184 0.0 0.0 0.00 0.00 0.00 78 1011.1
20260906101517 26 184 0.0 0.0 0.00 0.00 0.00 77 1010.9
20260906100017 26 184 0.0 0.0 0.00 0.00 0.00 77 1010.7
20260906094525 26 184 0.0 0.0 0.00 0.00 0.00 76 1010.5
20260906093013 26 184 0.0 0.0 0.00 0.00 0.00 76 1010.4
20260906091523 27 153 0.0 0.0 0.00 0.00 0.00 75 1010.4
20260906090010 27 153 0.0 0.0 0.00 0.00 0.00 75 1010.4
20260906084517 27 143 0.0 0.0 0.00 0.00 0.00 74 1010.3
20260906083020 27 131 0.0 1.6 0.00 0.00 0.00 74 1010.3
20260906081519 27 221 0.0 6.4 0.00 0.00 0.00 74 1010.3
20260906080004 27 159 0.0 6.4 0.00 0.00 0.00 73 1010.4
20260906074503 27 178 0.0 8.0 0.00 0.00 0.00 73 1010.5
20260906073000 28 130 0.0 4.8 0.00 0.00 0.00 73 1010.4
20260906071609 28 207 1.6 8.0 0.00 0.00 0.00 72 1010.5
20260906070057 28 134 0.0 8.0 0.00 0.00 0.00 72 1010.7
20260906064556 28 146 1.6 8.0 0.00 0.00 0.00 72 1010.7
20260906063054 28 157 3.2 9.7 0.00 0.00 0.00 71 1010.8
20260906061552 28 165 0.0 3.2 0.00 0.00 0.00 71 1011.0
20260906060050 28 145 0.0 6.4 0.00 0.00 0.00 71 1011.0
20260906054554 29 186 1.6 6.4 0.00 0.00 0.00 71 1010.9
20260906053046 29 168 1.6 6.4 0.00 0.00 0.00 70 1010.7
20260906051551 29 144 0.0 8.0 0.00 0.00 0.00 70 1010.7
20260906050109 29 134 1.6 9.7 0.00 0.00 0.00 69 1010.7
20260906044543 29 165 0.0 4.8 0.00 0.00 0.00 68 1010.8
20260906043042 30 161 0.0 3.2 0.00 0.00 0.00 67 1010.7
20260906041542 30 152 0.0 4.8 0.00 0.00 0.00 66 1010.6
20260906040045 30 128 0.0 4.8 0.00 0.00 0.00 65 1010.5
20260906034543 30 134 1.6 4.8 0.00 0.00 0.00 65 1010.6
20260906033040 30 121 1.6 11.3 0.00 0.00 0.00 64 1010.6
20260906031543 30 137 1.6 12.9 0.00 0.00 0.00 63 1010.7
20260906030040 30 192 1.6 11.3 0.00 0.00 0.00 63 1010.6
20260906024539 31 135 3.2 12.9 0.00 0.00 0.00 62 1010.6
20260906023039 31 86 0.0 11.3 0.00 0.00 0.00 62 1010.4
20260906021541 31 117 0.0 8.0 0.00 0.00 0.00 61 1010.1
20260906020038 31 152 1.6 6.4 0.00 0.00 0.00 60 1010.0
20260906014537 31 171 1.6 11.3 0.00 0.00 0.00 58 1009.7
20260906013036 32 161 3.2 16.1 0.00 0.00 0.00 57 1009.4
20260906011537 32 175 1.6 14.5 0.00 0.00 0.00 55 1009.2
20260906010035 33 188 3.2 20.9 0.00 0.00 0.00 52 1009.1
20260906004537 35 127 4.8 19.3 0.00 0.00 0.00 47 1009.0
20260906003035 35 119 0.0 6.4 0.00 0.00 0.00 43 1008.7
20260906001535 35 140 0.0 4.8 0.00 0.00 0.00 42 1008.7
20260906000034 36 45 3.2 8.0 0.00 0.00 0.00 41 1008.6
20260905234534 36 126 0.0 1.6 0.00 0.00 0.00 40 1008.5